Terminal Aerodrome Forecast
Issued by NWS Wilmington, OH

Current Version | Previous Version | Text Only | Print | Product List | Glossary Off
Versions: 1 2 3 4 5 6 7 8 9 10 11 12 13 14 15 16 17 18 19 20 21 22 23 24 25 26 27 28 29 30 31

000
FTUS41 KILN 180800 AAA
TAFCVG
TAF AMD
KCVG 180859Z 1809/1912 VRB03KT P6SM SCT250
     FM181500 06008KT P6SM SCT050
     FM182300 07010KT P6SM SCT250
     FM190800 09012KT P6SM BKN150=

USA.gov is the U.S. government's official web portal to all federal, state and local government web resources and services.